| time (UTC) | temp F | wind direction | speed MPH | gust MPH | rain 1hr in | rain 24hr in | rain mn in | humidity % | barometer mb |
| 20260906120005 | 69 | 190 | 0.0 | 0.0 | 0.00 | 0.82 | 0.51 | 98 | 1010.1 |
| 20260906114505 | 69 | 190 | 0.0 | 0.0 | 0.00 | 0.82 | 0.51 | 98 | 1010.0 |
| 20260906113002 | 69 | 190 | 0.0 | 0.0 | 0.00 | 0.82 | 0.51 | 98 | 1010.0 |
| 20260906111601 | 69 | 190 | 0.0 | 0.0 | 0.00 | 0.82 | 0.51 | 98 | 1009.9 |
| 20260906111501 | 69 | 190 | 0.0 | 0.0 | 0.00 | 0.82 | 0.51 | 98 | 1010.0 |
| 20260906110100 | 69 | 190 | 0.0 | 0.0 | 0.00 | 0.82 | 0.51 | 97 | 1009.9 |
| 20260906104559 | 69 | 190 | 0.0 | 0.0 | 0.00 | 0.82 | 0.51 | 98 | 1009.6 |
| 20260906103058 | 69 | 190 | 0.0 | 0.0 | 0.00 | 0.82 | 0.51 | 98 | 1009.4 |
| 20260906101602 | 70 | 190 | 0.0 | 0.0 | 0.00 | 0.82 | 0.51 | 97 | 1009.3 |
| 20260906100056 | 70 | 190 | 0.0 | 0.0 | 0.00 | 0.82 | 0.51 | 98 | 1009.6 |
| 20260906094555 | 70 | 190 | 0.0 | 0.0 | 0.00 | 0.82 | 0.51 | 97 | 1009.9 |
| 20260906093054 | 70 | 190 | 0.0 | 0.0 | 0.00 | 0.82 | 0.51 | 97 | 1010.0 |
| 20260906091553 | 70 | 190 | 0.0 | 0.0 | 0.00 | 0.82 | 0.51 | 98 | 1009.5 |
| 20260906090052 | 70 | 190 | 0.0 | 0.0 | 0.00 | 0.82 | 0.51 | 97 | 1009.3 |
| 20260906084550 | 70 | 190 | 0.0 | 0.0 | 0.00 | 0.82 | 0.51 | 97 | 1009.3 |
| 20260906083050 | 71 | 190 | 0.0 | 0.0 | 0.00 | 0.82 | 0.51 | 97 | 1009.2 |
| 20260906081552 | 71 | 190 | 0.0 | 0.0 | 0.00 | 0.82 | 0.51 | 97 | 1009.3 |
| 20260906080047 | 71 | 190 | 0.0 | 0.0 | 0.00 | 0.82 | 0.51 | 97 | 1009.1 |
| 20260906074548 | 71 | 190 | 0.0 | 0.0 | 0.00 | 0.82 | 0.51 | 97 | 1009.2 |
| 20260906073046 | 72 | 190 | 0.0 | 0.0 | 0.00 | 0.82 | 0.51 | 97 | 1009.6 |
| 20260906071542 | 72 | 190 | 0.0 | 0.0 | 0.00 | 0.82 | 0.51 | 97 | 1009.7 |
| 20260906070040 | 72 | 190 | 0.0 | 0.0 | 0.01 | 0.82 | 0.51 | 97 | 1010.1 |
| 20260906064538 | 72 | 190 | 0.0 | 0.0 | 0.01 | 0.82 | 0.51 | 97 | 1010.4 |
| 20260906063036 | 72 | 190 | 0.0 | 0.0 | 0.12 | 0.82 | 0.51 | 97 | 1010.9 |
| 20260906061534 | 72 | 152 | 0.0 | 0.0 | 0.37 | 0.82 | 0.51 | 96 | 1011.4 |
| 20260906060039 | 72 | 194 | 0.0 | 0.0 | 0.49 | 0.81 | 0.50 | 96 | 1010.9 |
| 20260906054532 | 73 | 309 | 0.0 | 0.0 | 0.72 | 0.81 | 0.50 | 96 | 1011.4 |
| 20260906053032 | 73 | 307 | 0.0 | 10.0 | 0.59 | 0.68 | 0.37 | 95 | 1011.1 |
| 20260906051525 | 74 | 298 | 0.0 | 8.0 | 0.36 | 0.45 | 0.14 | 94 | 1011.5 |
| 20260906050022 | 74 | 305 | 0.0 | 1.0 | 0.22 | 0.31 | 0.00 | 94 | 1010.6 |
| 20260906044520 | 73 | 242 | 0.0 | 0.0 | 0.00 | 0.09 | 0.09 | 96 | 1010.2 |
| 20260906043020 | 73 | 236 | 0.0 | 0.0 | 0.00 | 0.09 | 0.09 | 97 | 1009.7 |
| 20260906041526 | 73 | 236 | 0.0 | 0.0 | 0.00 | 0.09 | 0.09 | 96 | 1009.8 |
| 20260906040028 | 73 | 236 | 0.0 | 0.0 | 0.00 | 0.09 | 0.09 | 96 | 1009.8 |
| 20260906034526 | 73 | 236 | 0.0 | 0.0 | 0.00 | 0.09 | 0.09 | 96 | 1010.0 |
| 20260906033018 | 73 | 236 | 0.0 | 0.0 | 0.00 | 0.09 | 0.09 | 96 | 1010.0 |
| 20260906031532 | 73 | 302 | 0.0 | 0.0 | 0.00 | 0.09 | 0.09 | 96 | 1010.0 |
| 20260906030017 | 73 | 302 | 0.0 | 0.0 | 0.00 | 0.09 | 0.09 | 95 | 1009.8 |
| 20260906024517 | 73 | 302 | 0.0 | 0.0 | 0.00 | 0.09 | 0.09 | 95 | 1009.6 |
| 20260906023017 | 74 | 302 | 0.0 | 0.0 | 0.00 | 0.09 | 0.09 | 94 | 1009.5 |
| 20260906021518 | 75 | 302 | 0.0 | 0.0 | 0.00 | 0.09 | 0.09 | 94 | 1009.1 |
| 20260906020015 | 75 | 302 | 0.0 | 0.0 | 0.00 | 0.09 | 0.09 | 95 | 1008.9 |
| 20260906014522 | 74 | 299 | 0.0 | 0.0 | 0.00 | 0.09 | 0.09 | 95 | 1008.8 |
| 20260906013014 | 74 | 176 | 0.0 | 0.0 | 0.00 | 0.09 | 0.09 | 95 | 1008.2 |
| 20260906011514 | 74 | 176 | 0.0 | 0.0 | 0.00 | 0.09 | 0.09 | 94 | 1008.5 |
| 20260906010013 | 75 | 176 | 0.0 | 0.0 | 0.00 | 0.09 | 0.09 | 94 | 1008.8 |
| 20260906004512 | 75 | 176 | 0.0 | 0.0 | 0.00 | 0.09 | 0.09 | 94 | 1008.8 |
| 20260906003012 | 76 | 176 | 0.0 | 0.0 | 0.00 | 0.09 | 0.09 | 93 | 1008.8 |
| 20260906001513 | 76 | 176 | 0.0 | 0.0 | 0.00 | 0.09 | 0.09 | 93 | 1008.7 |
| 20260906000011 | 76 | 113 | 0.0 | 0.0 | 0.00 | 0.09 | 0.09 | 92 | 1008.7 |
| 20260905234511 | 76 | 113 | 0.0 | 0.0 | 0.00 | 0.09 | 0.09 | 91 | 1008.9 |
| 20260905233010 | 77 | 360 | 0.0 | 1.0 | 0.00 | 0.09 | 0.09 | 93 | 1008.6 |
| 20260905231510 | 78 | 175 | 0.0 | 0.0 | 0.00 | 0.09 | 0.09 | 94 | 1008.3 |
| 20260905230009 | 79 | 178 | 0.0 | 0.0 | 0.09 | 0.09 | 0.09 | 92 | 1008.4 |
| 20260905224510 | 78 | 178 | 0.0 | 0.0 | 0.09 | 0.09 | 0.09 | 92 | 1008.1 |
| 20260905223008 | 77 | 178 | 0.0 | 0.0 | 0.09 | 0.09 | 0.09 | 91 | 1008.0 |
| 20260905221506 | 78 | 207 | 0.0 | 0.0 | 0.09 | 0.09 | 0.09 | 86 | 1008.9 |
| 20260905220005 | 85 | 311 | 0.0 | 2.0 | 0.00 | 0.00 | 0.00 | 66 | 1009.2 |
| 20260905214503 | 91 | 173 | 0.0 | 5.0 | 0.00 | 0.00 | 0.00 | 56 | 1009.1 |
| 20260905213004 | 96 | 236 | 0.0 | 0.0 | 0.00 | 0.00 | 0.00 | 56 | 1008.4 |
| 20260905211502 | 96 | 235 | 0.0 | 0.0 | 0.00 | 0.00 | 0.00 | 50 | 1008.4 |
| 20260905210002 | 96 | 244 | 0.0 | 0.0 | 0.00 | 0.00 | 0.00 | 49 | 1008.4 |
| 20260905204600 | 96 | 256 | 0.0 | 0.0 | 0.00 | 0.00 | 0.00 | 49 | 1008.2 |
| 20260905203059 | 97 | 334 | 0.0 | 0.0 | 0.00 | 0.00 | 0.00 | 50 | 1008.5 |
| 20260905201556 | 96 | 334 | 0.0 | 0.0 | 0.00 | 0.00 | 0.00 | 50 | 1008.7 |
| 20260905200116 | 96 | 42 | 0.0 | 0.0 | 0.00 | 0.00 | 0.00 | 51 | 1008.9 |
| 20260905194551 | 95 | 5 | 0.0 | 0.0 | 0.00 | 0.00 | 0.00 | 56 | 1009.1 |
| 20260905193047 | 95 | 326 | 0.0 | 0.0 | 0.00 | 0.00 | 0.00 | 57 | 1009.6 |
| 20260905191546 | 94 | 309 | 0.0 | 0.0 | 0.00 | 0.00 | 0.00 | 57 | 1009.8 |
| 20260905190051 | 94 | 301 | 0.0 | 0.0 | 0.00 | 0.00 | 0.00 | 56 | 1009.9 |
| 20260905184541 | 94 | 33 | 0.0 | 0.0 | 0.00 | 0.00 | 0.00 | 60 | 1009.9 |
| 20260905183038 | 93 | 325 | 0.0 | 0.0 | 0.00 | 0.00 | 0.00 | 58 | 1010.1 |
| 20260905181535 | 93 | 338 | 0.0 | 0.0 | 0.00 | 0.00 | 0.00 | 62 | 1010.4 |
| 20260905180047 | 92 | 323 | 0.0 | 0.0 | 0.00 | 0.00 | 0.00 | 59 | 1010.6 |
| 20260905174531 | 92 | 337 | 0.0 | 2.0 | 0.00 | 0.00 | 0.00 | 65 | 1010.7 |
| 20260905173028 | 92 | 323 | 0.0 | 1.0 | 0.00 | 0.00 | 0.00 | 62 | 1010.8 |
| 20260905171540 | 91 | 355 | 0.0 | 0.0 | 0.00 | 0.00 | 0.00 | 63 | 1010.8 |
| 20260905170025 | 90 | 24 | 0.0 | 0.0 | 0.00 | 0.00 | 0.00 | 67 | 1011.1 |
| 20260905164521 | 90 | 332 | 0.0 | 1.0 | 0.00 | 0.00 | 0.00 | 65 | 1011.3 |
| 20260905163019 | 89 | 324 | 0.0 | 0.0 | 0.00 | 0.00 | 0.00 | 66 | 1011.4 |
| 20260905161524 | 89 | 148 | 0.0 | 0.0 | 0.00 | 0.00 | 0.00 | 69 | 1011.6 |
| 20260905160019 | 89 | 148 | 0.0 | 0.0 | 0.00 | 0.00 | 0.00 | 69 | 1011.7 |
| 20260905154512 | 88 | 148 | 0.0 | 0.0 | 0.00 | 0.00 | 0.00 | 70 | 1011.7 |
| 20260905153009 | 87 | 148 | 0.0 | 0.0 | 0.00 | 0.00 | 0.00 | 71 | 1011.7 |
| 20260905151506 | 86 | 148 | 0.0 | 0.0 | 0.00 | 0.00 | 0.00 | 76 | 1011.8 |
| 20260905150004 | 85 | 148 | 0.0 | 0.0 | 0.00 | 0.00 | 0.00 | 75 | 1011.9 |
| 20260905144558 | 83 | 148 | 0.0 | 0.0 | 0.00 | 0.00 | 0.00 | 82 | 1012.0 |
| 20260905143055 | 82 | 148 | 0.0 | 0.0 | 0.00 | 0.00 | 0.00 | 87 | 1012.0 |
| 20260905141549 | 80 | 148 | 0.0 | 0.0 | 0.00 | 0.00 | 0.00 | 87 | 1012.0 |
| 20260905140048 | 79 | 148 | 0.0 | 0.0 | 0.00 | 0.00 | 0.00 | 93 | 1012.0 |
| 20260905134547 | 78 | 148 | 0.0 | 0.0 | 0.00 | 0.00 | 0.00 | 95 | 1011.9 |
| 20260905133041 | 77 | 148 | 0.0 | 0.0 | 0.00 | 0.00 | 0.00 | 97 | 1012.1 |
| 20260905131538 | 76 | 163 | 0.0 | 0.0 | 0.00 | 0.00 | 0.00 | 98 | 1012.2 |
| 20260905130034 | 75 | 163 | 0.0 | 0.0 | 0.00 | 0.00 | 0.00 | 98 | 1012.2 |
| 20260905124531 | 74 | 159 | 0.0 | 0.0 | 0.00 | 0.00 | 0.00 | 98 | 1012.2 |
| 20260905123029 | 72 | 159 | 0.0 | 0.0 | 0.00 | 0.00 | 0.00 | 98 | 1012.1 |
| 20260905121528 | 72 | 159 | 0.0 | 0.0 | 0.00 | 0.00 | 0.00 | 98 | 1012.1 |